Погода в Маромице

Россия / Кировская область     59°51′59″N   48°00′41″E
темп.,
°C
ветер,
м/с
пор.,
м/с
влажн.,
%
обл.,
%
осадки,
мм/ч
давл.,
гПа
погр.,
м
26 февраля, пт
пт2600:00−19ююв3896100 0.0 1018386
03:00−20ююв3896100 0.1 1018360
06:00−21ююв3996100 0.0 1017336
09:00−21ююв4996100 0.0 1015395
12:00−17ююв5993100 0.0 1013562
15:00−16юв51192100 0.1 1010621
18:00−17юв51491100 0.1 1007658
21:00−16юв51291100 0.1 1005687
27 февраля, сб
сб2700:00−17вюв51095100 0.8 1004599
03:00−18вюв4993100 1.1 1005570
06:00−18в3894100 0.1 1005502
09:00−18в4793100 0.1 1006481
12:00−15всв3690100 0.1 1007611
15:00−13св3690100 0.1 1009695
18:00−17св2597100 0.1 1010111
21:00−19ссв259893 0.1 101295
28 февраля, вс
вс2800:00−20ссв239975 0.0 101247
03:00−21ссв239939 0.0 101442
06:00−22св2310067 0.0 101539
09:00−19св249549 0.0 1016216
12:00−14ссв249028 0.0 1016398
15:00−12ссв238953 0.0 1017440
18:00−17ссв129652 0.0 101820
21:00−20всв009926 0.0 102020
1 марта, пн
пн100:00−21з11990 0.0 102120
03:00−20з12990 0.0 102220
06:00−21зюз229910 0.0 102220
09:00−16юз249615 0.0 1022157
12:00−10юз369576 0.0 1020307
15:00−8юз489586 0.1 1018433
18:00−9юз51195100 0.1 1015499
21:00−7юз51393100 0.3 1012692
2 марта, вт
вт200:00−5юз61395100 1.6 1008668
03:00−3юз51196100 3.3 1005672
06:00−1зюз3897100 1.1 1003414
09:000зсз489299 1.3 1002728
12:000зсз489897 0.8 1001852
15:000зсз598783 1.1 10011007
18:00−3зсз4119393 0.2 1002762
21:00−3зсз4129496 0.5 1002790